Beauregard Regional Airport De Ridder US
ICAO: KDRI
IATA: DRI
Category: Medium
Scheduled Services: No

Elevation: 202 ft
TransAlt. 18000 ft.

Airport Communications:
POLK APP/DEP:123.7
AWOS 3:118.225
DE RIDDER RDO:122.2
CTAF/UNICOM:122.8

KDRI Zoom In..

If you have problems with the map follow the link
https://www.worldairports.se/pages/airport.php?
ICAO=KDRI

Runways:

(A) RW 14 length 4220 ft width 60 ft
LOC 111.10 / hdg 130

(B) RW 18 length 5495 ft width 100 ft
LOC 111.10 / hdg 175

(C) RW 32 length 4220 ft width 60 ft
LOC 111.10 / hdg 310

(D) RW 36 length 5495 ft width 100 ft
LOC 111.10 / hdg 355

Location; KDRI
Day. 16 / Time. 11.55 Zulu
* Altimeter: 30.25
* Temperature: 02° c. 35.6°f.
* Wind from: 000° Speed 00 kn.
Dewpoint: 01° c.
Visibility: 10 Statute Miles.
Clouds: Clear (automated report).

KDRI 161155Z AUTO 00000KT 10SM CLR 02/01 A3025 RMK AO2 T00200012 10044 20020


Wind - Calm.

 
 
jpsmedia.com for Web Design worldairports.se 2018   terms of use